This is the latest recevied weather packets stored in our database for station/object F4NFR-13. If no packets are shown the sender has not sent any weather packets the latest 1 day(s).
| Time | Temp. | Humidity | Pressure | Rain* | Wind** | Luminosity | Snow |
|---|---|---|---|---|---|---|---|
| 1778021648 | 10° C | 82% | 1012.7 hPa | 0 mm | 1.79 m/s, 38° | 0 W/m² | - |
| 1778021346 | 10° C | 82% | 1012.7 hPa | 0 mm | 1.79 m/s, 5° | 0 W/m² | - |
| 1778021044 | 10° C | 81% | 1012.7 hPa | 0 mm | 2.68 m/s, 5° | 0 W/m² | - |
| 1778020742 | 10° C | 81% | 1012.7 hPa | 0 mm | 1.79 m/s, 15° | 0 W/m² | - |
| 1778020439 | 10° C | 81% | 1012.7 hPa | 0 mm | 3.13 m/s, 28° | 0 W/m² | - |
| 1778020137 | 10° C | 81% | 1012.7 hPa | 0 mm | 1.79 m/s, 58° | 0 W/m² | - |
| 1778019834 | 10° C | 81% | 1012.7 hPa | 0 mm | 3.13 m/s, 60° | 0 W/m² | - |
| 1778019532 | 10° C | 81% | 1012.7 hPa | 0 mm | 3.13 m/s, 29° | 0 W/m² | - |
| 1778019230 | 10° C | 81% | 1012.7 hPa | 0 mm | 1.79 m/s, 73° | 0 W/m² | - |
| 1778018927 | 10° C | 81% | 1012.7 hPa | 0 mm | 2.68 m/s, 42° | 0 W/m² | - |
| 1778018624 | 10° C | 81% | 1012.7 hPa | 0 mm | 2.68 m/s, 93° | 0 W/m² | - |
| 1778018322 | 10° C | 81% | 1012.7 hPa | 0 mm | 2.24 m/s, 82° | 0 W/m² | - |
| 1778018020 | 10° C | 81% | 1012.7 hPa | 0 mm | 5.36 m/s, 18° | 0 W/m² | - |
| 1778017718 | 10° C | 80% | 1012.7 hPa | 0 mm | 4.02 m/s, 64° | 0 W/m² | - |
| 1778017415 | 10° C | 80% | 1012.7 hPa | 0 mm | 3.58 m/s, 20° | 0 W/m² | - |
| 1778017113 | 10° C | 80% | 1012.7 hPa | 0 mm | 2.68 m/s, 354° | 0 W/m² | - |
| 1778016508 | 10° C | 80% | 1012.7 hPa | 0 mm | 4.47 m/s, 51° | 0 W/m² | - |
| 1778016205 | 10° C | 80% | 1012.7 hPa | 0 mm | 2.68 m/s, 14° | 0 W/m² | - |
| 1778015600 | 10° C | 81% | 1012.7 hPa | 0 mm | 3.13 m/s, 37° | 0 W/m² | - |
| 1778015298 | 10° C | 80% | 1012.7 hPa | 0 mm | 4.02 m/s, 38° | 0 W/m² | - |
| 1778014996 | 10° C | 80% | 1012.7 hPa | 0 mm | 3.13 m/s, 51° | 0 W/m² | - |
| 1778014694 | 10° C | 81% | 1012.7 hPa | 0 mm | 1.79 m/s, 38° | 0 W/m² | - |
| 1778014392 | 10° C | 80% | 1012.7 hPa | 0 mm | 2.24 m/s, 46° | 0 W/m² | - |
| 1778014089 | 10° C | 80% | 1012.7 hPa | 0 mm | 4.02 m/s, 0° | 0 W/m² | - |
| 1778013787 | 10° C | 80% | 1012.7 hPa | 0 mm | 4.02 m/s, 30° | 0 W/m² | - |
* Rain latest hour (hover to see other rain measurements)
** Current wind speed in m/s (hover to see current wind gust speed)